When you browse on this site, cookies collect data to enhance your experience and personalize the content and advertising you see.
Visit our Privacy Policy to learn more. By continuing to use the site, you agree to this use of cookies and data.
  • In Österreich
  • Länderverzeichnis
  • Für 7 Tage
  • Wassertemperatur
  • Satellitenkarten
  • Wetterkarte
  • News
  • Widgets
  • user-avatar
    Anmelden

    Stündliche Wetter Bromierzyk

    Heute, 20 Februar, Mittwoch

    Zeit Temperatur Niederschläge Wind Luftdruck Luftfeuchtigkeit
    00:00 +3°C° 0 mm 5 m/S 753 mmHg 87%
    01:00 +3°C° 0 mm 4 m/S 753 mmHg 87%
    02:00 +3°C° 0 mm 4 m/S 753 mmHg 88%
    03:00 +2°C° 0 mm 5 m/S 753 mmHg 89%
    04:00 +2°C° 0 mm 5 m/S 753 mmHg 89%
    05:00 +2°C° 0 mm 5 m/S 754 mmHg 89%
    06:00 +2°C° 0 mm 5 m/S 754 mmHg 88%
    07:00 +2°C° 0 mm 6 m/S 754 mmHg 88%
    08:00 +2°C° 0 mm 6 m/S 755 mmHg 82%
    09:00 +3°C° 0 mm 7 m/S 755 mmHg 76%
    10:00 +4°C° 0 mm 7 m/S 755 mmHg 70%
    11:00 +4°C° 0.1 mm 8 m/S 756 mmHg 69%
    12:00 +4°C° 0.1 mm 8 m/S 756 mmHg 68%
    13:00 +4°C° 0.1 mm 8 m/S 756 mmHg 67%
    14:00 +4°C° 0 mm 7 m/S 756 mmHg 67%
    15:00 +4°C° 0 mm 7 m/S 757 mmHg 66%
    16:00 +4°C° 0 mm 6 m/S 757 mmHg 66%
    17:00 +4°C° 0 mm 6 m/S 757 mmHg 69%
    18:00 +3°C° 0 mm 6 m/S 758 mmHg 71%
    19:00 +3°C° 0 mm 5 m/S 758 mmHg 73%
    20:00 +3°C° 0 mm 5 m/S 758 mmHg 75%
    21:00 +3°C° 0 mm 5 m/S 759 mmHg 77%
    22:00 +3°C° 0 mm 5 m/S 759 mmHg 78%
    23:00 +3°C° 0 mm 4 m/S 759 mmHg 81%

    Morgen, 21 Februar, Donnerstag

    Zeit Temperatur Niederschläge Wind Luftdruck Luftfeuchtigkeit
    00:00 +3°C° 0 mm 4 m/S 759 mmHg 84%
    01:00 +2°C° 0 mm 3 m/S 760 mmHg 87%
    02:00 +2°C° 0 mm 3 m/S 760 mmHg 89%
    03:00 +2°C° 0 mm 3 m/S 760 mmHg 91%
    04:00 +2°C° 0 mm 3 m/S 760 mmHg 93%
    05:00 +3°C° 0.2 mm 2 m/S 760 mmHg 94%
    06:00 +3°C° 0.2 mm 2 m/S 760 mmHg 95%
    07:00 +3°C° 0.2 mm 2 m/S 760 mmHg 95%
    08:00 +3°C° 0.3 mm 3 m/S 759 mmHg 93%
    09:00 +4°C° 0.3 mm 4 m/S 759 mmHg 91%
    10:00 +4°C° 0.3 mm 4 m/S 759 mmHg 88%
    11:00 +3°C° 0.6 mm 5 m/S 759 mmHg 88%
    12:00 +3°C° 0.6 mm 5 m/S 759 mmHg 87%
    13:00 +3°C° 0.6 mm 5 m/S 758 mmHg 86%
    14:00 +3°C° 0.9 mm 5 m/S 758 mmHg 87%
    15:00 +3°C° 0.9 mm 5 m/S 757 mmHg 88%
    16:00 +3°C° 0.9 mm 5 m/S 757 mmHg 89%
    17:00 +3°C° 0.6 mm 5 m/S 757 mmHg 89%
    18:00 +3°C° 0.6 mm 5 m/S 756 mmHg 90%
    19:00 +3°C° 0.6 mm 5 m/S 756 mmHg 90%
    20:00 +3°C° 0.9 mm 5 m/S 756 mmHg 91%
    21:00 +4°C° 0.9 mm 4 m/S 756 mmHg 93%
    22:00 +4°C° 0.9 mm 4 m/S 756 mmHg 94%
    23:00 +4°C° 0.3 mm 4 m/S 756 mmHg 94%

    übermorgen, 22 Februar, Freitag

    Zeit Temperatur Niederschläge Wind Luftdruck Luftfeuchtigkeit
    00:00 +4°C° 0.3 mm 4 m/S 756 mmHg 94%
    01:00 +4°C° 0.3 mm 4 m/S 757 mmHg 94%
    02:00 +2°C° 0.3 mm 5 m/S 757 mmHg 91%
    03:00 -1°C° 0.3 mm 6 m/S 758 mmHg 87%
    04:00 -3°C° 0.3 mm 7 m/S 758 mmHg 84%
    05:00 -3°C° 0 mm 7 m/S 760 mmHg 78%
    06:00 -4°C° 0 mm 7 m/S 761 mmHg 73%
    07:00 -4°C° 0 mm 6 m/S 763 mmHg 68%
    08:00 -4°C° 0 mm 6 m/S 764 mmHg 65%
    09:00 -4°C° 0 mm 6 m/S 765 mmHg 61%
    10:00 -4°C° 0 mm 6 m/S 767 mmHg 58%
    11:00 -4°C° 0 mm 6 m/S 767 mmHg 56%
    12:00 -4°C° 0 mm 6 m/S 768 mmHg 54%
    13:00 -4°C° 0 mm 6 m/S 769 mmHg 52%
    14:00 -4°C° 0 mm 5 m/S 769 mmHg 52%
    15:00 -4°C° 0 mm 5 m/S 770 mmHg 52%
    16:00 -4°C° 0 mm 5 m/S 770 mmHg 52%
    17:00 -5°C° 0 mm 5 m/S 771 mmHg 53%
    18:00 -4°C° 0 mm 4 m/S 771 mmHg 54%
    19:00 -5°C° 0 mm 4 m/S 772 mmHg 54%
    20:00 -5°C° 0 mm 4 m/S 772 mmHg 51%
    21:00 -5°C° 0 mm 4 m/S 773 mmHg 48%
    22:00 -5°C° 0 mm 4 m/S 773 mmHg 44%
    23:00 -5°C° 0 mm 4 m/S 774 mmHg 43%

    23 Februar, Samstag

    Zeit Temperatur Niederschläge Wind Luftdruck Luftfeuchtigkeit
    00:00 -5°C° 0 mm 4 m/S 774 mmHg 41%
    01:00 -7°C° 0 mm 4 m/S 774 mmHg 39%
    02:00 -6°C° 0 mm 3 m/S 774 mmHg 41%
    03:00 -6°C° 0 mm 3 m/S 774 mmHg 43%
    04:00 -6°C° 0 mm 3 m/S 774 mmHg 45%
    05:00 -6°C° 0 mm 3 m/S 774 mmHg 46%
    06:00 -7°C° 0 mm 3 m/S 775 mmHg 48%
    07:00 -7°C° 0 mm 3 m/S 775 mmHg 50%
    08:00 -6°C° 0 mm 3 m/S 775 mmHg 46%
    09:00 -5°C° 0 mm 3 m/S 775 mmHg 42%
    10:00 -5°C° 0 mm 3 m/S 776 mmHg 39%
    11:00 -3°C° 0 mm 2 m/S 775 mmHg 36%
    12:00 -2°C° 0 mm 2 m/S 775 mmHg 33%
    13:00 -2°C° 0 mm 2 m/S 775 mmHg 30%
    14:00 -2°C° 0 mm 2 m/S 775 mmHg 31%
    15:00 -2°C° 0 mm 2 m/S 774 mmHg 32%
    16:00 -1°C° 0 mm 2 m/S 774 mmHg 33%
    17:00 -2°C° 0 mm 2 m/S 774 mmHg 36%
    18:00 -3°C° 0 mm 2 m/S 774 mmHg 39%
    19:00 -1°C° 0 mm 1 m/S 774 mmHg 42%
    20:00 -1°C° 0 mm 1 m/S 774 mmHg 42%
    21:00 -1°C° 0 mm 1 m/S 774 mmHg 42%
    22:00 0°C° 0 mm 1 m/S 774 mmHg 42%
    23:00 0°C° 0 mm 1 m/S 774 mmHg 42%

    24 Februar, Sonntag

    Zeit Temperatur Niederschläge Wind Luftdruck Luftfeuchtigkeit
    00:00 0°C° 0 mm 1 m/S 773 mmHg 42%
    01:00 0°C° 0 mm 1 m/S 773 mmHg 42%
    02:00 -2°C° 0 mm 2 m/S 773 mmHg 43%
    03:00 -2°C° 0 mm 2 m/S 772 mmHg 43%
    04:00 -2°C° 0 mm 2 m/S 772 mmHg 43%
    05:00 -2°C° 0 mm 2 m/S 772 mmHg 44%
    06:00 -2°C° 0 mm 2 m/S 772 mmHg 44%
    07:00 -2°C° 0 mm 2 m/S 772 mmHg 45%
    08:00 -1°C° 0 mm 3 m/S 772 mmHg 43%
    09:00 0°C° 0 mm 3 m/S 772 mmHg 41%
    10:00 +1°C° 0 mm 3 m/S 772 mmHg 39%
    11:00 +1°C° 0 mm 3 m/S 771 mmHg 41%
    12:00 +2°C° 0 mm 3 m/S 771 mmHg 43%
    13:00 +3°C° 0 mm 3 m/S 771 mmHg 44%
    14:00 +3°C° 0 mm 3 m/S 771 mmHg 50%
    15:00 +3°C° 0 mm 2 m/S 770 mmHg 55%
    16:00 +3°C° 0 mm 2 m/S 770 mmHg 61%
    17:00 +2°C° 0 mm 2 m/S 770 mmHg 64%
    18:00 +2°C° 0 mm 2 m/S 770 mmHg 67%
    19:00 +1°C° 0 mm 2 m/S 771 mmHg 71%
    20:00 +1°C° 0 mm 2 m/S 771 mmHg 72%
    21:00 +1°C° 0 mm 2 m/S 771 mmHg 73%
    22:00 +2°C° 0 mm 1 m/S 771 mmHg 74%
    23:00 +1°C° 0 mm 2 m/S 771 mmHg 75%

    25 Februar, Montag

    Zeit Temperatur Niederschläge Wind Luftdruck Luftfeuchtigkeit
    00:00 -1°C° 0 mm 2 m/S 770 mmHg 76%
    01:00 -1°C° 0 mm 2 m/S 770 mmHg 77%
    02:00 -1°C° 0 mm 2 m/S 770 mmHg 77%
    03:00 -1°C° 0 mm 2 m/S 770 mmHg 77%
    04:00 -1°C° 0 mm 3 m/S 769 mmHg 77%
    05:00 -1°C° 0 mm 3 m/S 769 mmHg 78%
    06:00 -1°C° 0 mm 3 m/S 769 mmHg 78%
    07:00 -1°C° 0 mm 3 m/S 769 mmHg 79%
    08:00 0°C° 0 mm 3 m/S 769 mmHg 76%
    09:00 +1°C° 0 mm 3 m/S 769 mmHg 74%
    10:00 +3°C° 0 mm 4 m/S 769 mmHg 71%
    11:00 +4°C° 0 mm 4 m/S 769 mmHg 70%
    12:00 +5°C° 0 mm 5 m/S 769 mmHg 70%
    13:00 +7°C° 0 mm 5 m/S 768 mmHg 69%
    14:00 +6°C° 0 mm 5 m/S 768 mmHg 67%
    15:00 +6°C° 0 mm 5 m/S 768 mmHg 65%
    16:00 +6°C° 0 mm 4 m/S 768 mmHg 62%
    17:00 +4°C° 0 mm 4 m/S 768 mmHg 68%
    18:00 +3°C° 0 mm 4 m/S 769 mmHg 74%
    19:00 +1°C° 0 mm 4 m/S 769 mmHg 79%
    20:00 0°C° 0 mm 4 m/S 769 mmHg 81%
    21:00 0°C° 0 mm 4 m/S 769 mmHg 83%
    22:00 0°C° 0 mm 4 m/S 769 mmHg 86%
    23:00 -1°C° 0 mm 4 m/S 769 mmHg 86%
    Mehr zeigen